User: anonymous
Location: Montr�al
(45.5000°N, 73.5830°W)
Time: 07:45:46
(UTC-04:00)
Language:

Cosmos 1151 Rocket - Orbit

View from above orbital plane
View from above orbital plane
View from above satellite
View from above satellite

Ground track
Ground track

The orbit data is extracted from the following two-line orbital elements,

1 11672U 80005B   14233.41448689  .00000203  00000-0  19763-4 0   948
2 11672 082.5190 331.9399 0018360 135.6547 269.7996 14.87214382870159
Epoch (UTC): 21 August 2014 09:56:51
Eccentricity: 0.0018360
inclination: 82.5190°
perigee height: 594 km
apogee height: 619 km
right ascension of ascending node: 331.9399°
argument of perigee: 135.6547°
revolutions per day: 14.87214382
mean anomaly at epoch: 269.7996°
orbit number at epoch: 87015

The dashed part of the orbit path shows where the satellite is in the earth's shadow,  

DLR